Location: Alladorf
(49.9620°N, 11.3790°E)
Time: 21:32:23
(UTC+00:00)

BREEZE M DEB (TANK) - Pass Details

Date: 29 November 2020
Orbit: 289 x 16164 km, 49.5° (Epoch: 25 January)

Event Time Altitude Azimuth Distance (km) Brightness Sun altitude
Rises 05:40:43 0° 238° (WSW) 5,591 7.1 -10.5°
Reaches altitude 10° 05:46:02 10° 234° (SW) 3,118 5.8 -9.7°
Maximum altitude 05:51:35 42° 164° (SSE) 742 3.3 -8.9°
Drops below altitude 10° 05:53:58 10° 89° (E) 1,333 5.5 -8.6°
Sets 05:55:23 0° 81° (E) 2,018 6.3 -8.4°
